Weather in Ralniki

Russia / Kirov Oblast     56°38′59″N   50°07′22″E
temp.,
°C
wind,
m/s
gust,
m/s
humid.,
%
clouds,
%
prec.,
mm/h
press.,
hPa
HPBL,
m
18 may, tue
tue1800:00+16se117930 0.1 101811
03:00+15ne348419 0.1 101852
06:00+17ene477533 0.0 1018209
09:00+23ene345525 0.0 1019733
12:00+25ne3442100 0.0 10181184
15:00+26ne443810 0.0 10181295
18:00+22ne37545 0.0 1018214
21:00+17ene49655 0.0 1019148
19 may, wed
wed1900:00+14e410745 0.0 1019191
03:00+13ese410847 0.0 1020210
06:00+16ese410735 0.0 1020327
09:00+21ese675512 0.0 1020881
12:00+24ese67415 0.0 10201321
15:00+25se67395 0.0 10191452
18:00+22se485480 0.0 1018344
21:00+16ese411673 0.0 1019190
20 may, thu
thu2000:00+15se412700 0.0 1019242
03:00+14se410740 0.0 1019162
06:00+17se410675 0.0 1019268
09:00+22sse58455 0.0 1019993
12:00+24se79370 0.0 10181756
15:00+24se68360 0.0 10171904
18:00+21se49499 0.0 1015487
21:00+16ese4116634 0.0 1015216
21 may, fri
fri2100:00+15se4126719 0.0 1014249
03:00+13se4117092 0.0 1014216
06:00+16se496683 0.0 1013362
09:00+16s587697 0.1 1013905
12:00+19ssw61066100 0.6 10131449
15:00+20ssw696055 1.2 10131433
18:00+18sw5106967 0.4 1013994
21:00+14ssw411835 0.4 1015286
22 may, sat
sat2200:00+13sw512862 0.0 1016456
03:00+11sw4995100 0.0 1018263
06:00+13wsw4779100 0.0 1019480
09:00+16wsw4658100 0.0 10201089
12:00+18sw5653100 0.0 10201198
15:00+13w1289100 1.1 1021148
18:00+13n3489100 0.3 1019153
21:00+12n5998100 7.8 1018403